Preview of NWS' New Version of Forecast
This preview is not operational and should not be used for support decisions.
Latest weather observations around

Alabaster, Shelby County Airport (KEET)

Using English Units (Switch to International System of Units)
Date/ Time (CDT) Wind (mph) Vis. (mi) Weather Sky Cond. Temp (°F) Rel. Humidity Wind Chill (°F) Heat Index (°F) Pressure Precip. (in)
Air Dwpt 6 hour Altimeter (inHg) Sea level (inHg) 1 hr 3 hr 6 hr
Max Min
Apr 21 10:53 E 9 10 Clear CLR 67 42     40%     30.26 30.25      
Apr 21 09:53 E 10 10 Clear CLR 64 42     45%     30.27 30.26      
Apr 21 08:53 7 10 Clear CLR 58 43     57%     30.28 30.27      
Apr 21 07:53 Calm 10 Clear CLR 54 41     61%     30.28 30.27      
Apr 21 06:53 Calm 8 Clear CLR 48 39     71%     30.27 30.26      
Apr 21 05:53 Calm 9 Clear CLR 47 38     71%     30.25 30.24      
Apr 21 04:53 E 3 8 Clear CLR 48 37     66% 47   30.24 30.24      
Apr 21 03:53 ENE 5 8 Clear CLR 50 36     58% 48   30.25 30.24      
Apr 21 02:53 Calm 10 Clear CLR 48 42     80%     30.24 30.23      
Apr 21 01:53 Calm 10 Clear CLR 49 41     74%     30.26 30.25      
Apr 21 00:53 Calm 10 Clear CLR 50 40     68%     30.25 30.24      
Apr 20 23:53 Calm 10 Clear CLR 52 41     66%     30.25 30.24      
Apr 20 22:53 Calm 10 Clear CLR 56 38     51%     30.24 30.23      
Apr 20 21:53 Calm 10 Clear CLR 54 45     72%     30.25 30.24      
Apr 20 20:53 Calm 10 Clear CLR 58 38     47%     30.25 30.24      
Apr 20 19:53 Calm 10 Clear CLR 58 47     67%     30.24 30.23      
Apr 20 18:53 Calm 10 Clear CLR 67 34     29%     30.23 30.23      
Apr 20 17:53 NE 3 10 Clear CLR 70 34     26%     30.23 30.22      
Apr 20 16:53 NNE 5 9 Clear CLR 69 34     27%     30.24 30.23      
Apr 20 15:53 7 10 Clear CLR 69 35     29%     30.25 30.24      
Apr 20 14:53   10 Clear CLR 69 37     31%     30.27 30.26      
Apr 20 13:53 5 10 Clear CLR 67 36     32%     30.28 30.27      
Apr 20 12:53 7 10 Clear CLR 64 35     34%     30.31 30.3      
Apr 20 11:53 E 9 10 Clear CLR 62 35     36%     30.33 30.32      
Apr 20 10:53   10 Clear CLR 58 35     42%     30.33 30.32      
Apr 20 09:53 E 9 10 Clear CLR 55 35     47%     30.32 30.32      
Apr 20 08:53 7 10 Clear CLR 51 36     56%     30.31 30.31      
Apr 20 07:53 NE 8 10 Clear CLR 47 35     63% 43   30.31 30.3      
Apr 20 06:53 3 10 Clear CLR 44 33     65% 43   30.3 30.3      
Apr 20 05:53 3 10 Clear CLR 43 33     68% 41   30.27 30.26      
Apr 20 04:53 5 10 Clear CLR 44 33     65% 41   30.25 30.24      
Apr 20 03:53 N 5 10 Clear CLR 45 34     65% 43   30.24 30.24      
Apr 20 02:53 N 7 10 Clear CLR 46 34     63% 42   30.24 30.23      
Apr 20 01:53 N 3 10 Clear CLR 46 34     63% 45   30.22 30.22      
Apr 20 00:53 6 10 Clear CLR 48 34     58% 45   30.22 30.22      
Apr 19 23:53 N 6 10 Clear CLR 49 34     56% 46   30.23 30.23      
Apr 19 22:53 N 7 10 Clear CLR 50 34     54% 47   30.24 30.23      
Apr 19 21:53 N 9 10 Clear CLR 52 34     50%     30.24 30.23      
Apr 19 19:53 N 7 10 Clear CLR 55 36     48%     30.22 30.22      
Apr 19 18:53 NNW 9 10 Clear CLR 58 36     44%     30.2 30.19      
Apr 19 17:53 NNW 9 10 Clear CLR 61 38     42%     30.18 30.17      
Apr 19 16:53 N 8 10 Clear CLR 64 40     41%     30.17 30.15      
Apr 19 15:53 NW 9 10 Clear CLR 65 41     42%     30.16 30.15      
Apr 19 14:53 NNW 10 10 Clear CLR 65 41     42%     30.17 30.15      
Apr 19 13:53 NW 13 10 Clear CLR 65 42     43%     30.18 30.16      
Apr 19 12:53 NNW 9 10 Clear CLR 65 42     43%     30.17 30.16      
Apr 19 11:53 NNW 10 10 Clear CLR 63 41     45%     30.17 30.15      
Apr 19 10:53 W 13 10 Clear CLR 62 40     44%     30.15 30.14      
Apr 19 09:53 NW 13 10 Clear CLR 61 43     52%     30.13 30.11      
Apr 19 08:53 NNW 8 10 Clear CLR 60 43     53%     30.11 30.09      
Apr 19 07:53 NNW 9 10 Clear CLR 59 43     55%     30.09 30.08      
Apr 19 06:53 NW 10 10 Clear CLR 58 43     57%     30.06 30.05      
Apr 19 05:53 NNW 8 10 Clear CLR 61 44     54%     30.03 30.01      
Apr 19 04:53 NW 8 10 Clear CLR 63 60     90%     29.99 29.98      
Apr 19 03:53 WNW 7 10 Partly Cloudy SCT021 65 61     87%     29.97 29.95      
Apr 19 02:53 W 6 10 Mostly Cloudy SCT036 BKN060 66 61     84%     29.96 29.94      
Apr 19 01:53 SW 3 10 Clear CLR 67 61     81%     29.96 29.94      
Apr 19 00:53 WSW 3 10 Clear CLR 68 60     76%     29.98 29.96      
Apr 18 23:53 3 10 Cloudy OVC055 70 60     71%     29.99 29.97      
Apr 18 22:53 3 10 Partly Cloudy SCT060 71 59     66%   71 29.98 29.96      
Apr 18 21:53 W 3 10 Cloudy OVC060 73 59     61%   73 29.98 29.96      
Apr 18 20:53 WSW 5 10 Partly Cloudy SCT055 73 57     57%   73 29.97 29.95      
Apr 18 19:53 5 10 Clear CLR 74 57     56%   74 29.95 29.93      
Apr 18 18:53 WSW 7 10 Clear CLR 77 56     48%   77 29.94 29.92      
Apr 18 17:53 SW 9 10 Clear CLR 79 54     42%   79 29.93 29.91      
Apr 18 16:53 SW 8 10 Clear CLR 80 55     42%   80 29.93 29.91      
Apr 18 15:53 SW 8 10 Clear CLR 80 55     42%   80 29.94 29.92      
Apr 18 14:53 SSW 14 10 Clear CLR 79 56     45%   79 29.96 29.94      
Apr 18 13:53 SSW 15 10 Clear CLR 77 55     47%   77 29.98 29.97      
Apr 18 12:53 SW 10 10 Clear CLR 75 56     52%   75 30.01 29.99      
Apr 18 11:53 SSW 13 10 Clear CLR 72 57     59%   72 30.02 30.01      
Jun 12 05:53 Calm 10 Mostly Clear FEW023 72 71     97%   73 30.14 30.12      
Jun 11 18:53 SSE 5 10 Clear CLR 86 69     57%   90 30.08 30.05      
Jun 11 11:53 SE 6 10 Clear CLR 85 66     53%   87 30.15 30.13      
Jun 11 10:53 ESE 7 10 Mostly Clear FEW031 83 71     67%   88 30.16 30.14      
Jun 11 01:53 Calm 10 Clear   71 65     81%   72 30.08 30.06      
Jun 10 03:53 Calm 10 Mostly Cloudy BKN060 BKN075 66 65     96%     30.01 29.98      
Jun 09 21:53 Calm 10 Clear CLR 70 66     87%     29.98 29.96      
Jun 08 19:53 Calm 10 Clear CLR 72 64     76%   72 29.87 29.85      
Jun 07 07:53 N 6 10 Clear CLR 70 60     71%     29.82 29.8      
Jun 06 08:20 NNW 5 3 Light Rain and Fog/Mist SCT006 OVC017 71 71     100%   73 29.81   0    
Jun 06 07:28 Calm 5 Light Rain and Fog/Mist BKN013 BKN017 OVC043 71 71     100%   73 29.81   0    
Jun 06 06:10 NW 6 1.75 Rain and Fog/Mist BKN013 BKN020 OVC024 70 70     100%     29.81   0    
Jun 06 05:05 Calm 3 Rain and Fog/Mist FEW031 BKN042 OVC070 71 71     100%   73 29.79   0    
Jun 05 21:53 Calm 10 Clear   72 72     100%   74 29.83 29.8   0